Regional Weather Roundup
Issued by NWS Cleveland, OH

Home | Current Version | Previous Version | Graphics & Text | Print | Product List | Glossary On
Versions: 1 2 3 4 5 6 7 8 9 10 11 12 13 14 15 16 17 18 19 20 21 22 23 24 25 26 27 28 29 30 31 32 33 34 35 36 37 38 39 40 41 42 43 44 45 46 47 48 49 50
000
ASUS41 KCLE 241110
RWRCLE
OHIO REGIONAL WEATHER ROUNDUP
NATIONAL WEATHER SERVICE CLEVELAND, OH
600 AM EST TUE JAN 24 2017

NOTE: "FAIR" INDICATES FEW OR NO CLOUDS BELOW 12,000 FEET WITH NO
SIGNIFICANT WEATHER AND/OR OBSTRUCTIONS TO VISIBILITY.

OHZ001>008-015>018-024>027-034-035-043-044-241200-
   NORTHWEST OHIO

CITY           SKY/WX    TMP DP  RH WIND       PRES   REMARKS
DEFIANCE       LGT RAIN  39  38  96 NW6       29.74F
FINDLAY        LGT RAIN  38  35  89 N6        29.72F
TOLEDO EXPRESS LGT RAIN  37  37 100 CALM      29.73F FOG
TOLEDO EXEC    CLOUDY    38  36  92 CALM      29.75R FOG
LIMA           CLOUDY    39  39 100 NW5       29.72F FOG
$$

OHZ009>014-019>023-028>033-038-089-241200-
   NORTHEAST OHIO

CITY           SKY/WX    TMP DP  RH WIND       PRES   REMARKS
CLE-HOPKINS    LGT RAIN  37  33  85 N9        29.70R
CLE-LAKEFRONT  MIX PCPN  35  33  92 N14       29.69R WCI  26
CUY CO. ARPT   NOT AVBL
LORAIN-ELYRIA  LGT RAIN  34  32  92 N9        29.71R WCI  27
ASHTABULA      CLOUDY    33  31  92 N8        29.67R WCI  26
AKRON-CANTON   LGT RAIN  39  37  92 W6        29.65R FOG
WOOSTER        LGT RAIN  39  37  92 NW8       29.67R
MANSFIELD      LGT RAIN  35  35 100 W8        29.69R WCI  29
YOUNGSTOWN     LGT RAIN  36  34  92 NW9       29.62S FOG
$$

OHZ042-051>053-060>062-070>072-077>081-241200-
  SOUTHWEST OHIO

CITY           SKY/WX    TMP DP  RH WIND       PRES   REMARKS
CINC-COVINGTON DRIZZLE   40  39  97 W13       29.77R
CINC-LUNKEN    CLOUDY    42  40  92 W5        29.79R
HAMILTON       CLOUDY    42  40  92 NW7       29.78R
DAYTON         CLOUDY    40  39  97 NW14      29.75R
WRIGHT-PAT AFB CLOUDY    42  42 100 W9        29.74R
DAYTON GENERAL CLOUDY    41  39  93 NW12      29.74S
WILMINGTON     CLOUDY    41  41 100 NW13      29.73R FOG
$$

OHZ036-037-039>041-045>050-054>059-063>069-073>076-082>088-241200-
  CENTRAL AND SOUTHEAST OHIO

CITY           SKY/WX    TMP DP  RH WIND       PRES   REMARKS
COLUMBUS       CLOUDY    40  40 100 NW14      29.70S
OSU AIRPORT    CLOUDY    39  38  96 NW9       29.70S
BOLTON FIELD   CLOUDY    40  39  97 NW12      29.71S FOG
RICKENBACK AFB   N/A     40  39  98 NW9       29.70S
NEWARK         LGT RAIN  41  38  89 NW7       29.69R
MARION         CLOUDY    37  35  92 NW10      29.72R
LANCASTER      CLOUDY    42  39  89 NW9       29.70S
ZANESVILLE     LGT RAIN  39  36  89 NW5       29.68R
NEW PHILLY     NOT AVBL
$$




USA.gov is the U.S. government's official web portal to all federal, state and local government web resources and services.